This is the latest recevied weather packets stored in our database for station/object KP4CRN. If no packets are shown the sender has not sent any weather packets the latest 10 day(s).
| Time | Temp. | Humidity | Pressure | Rain* | Wind** | Luminosity | Snow |
|---|---|---|---|---|---|---|---|
| 1777829104 | 32.78° C | 58% | 1016.7 hPa | 0 mm | - | 68 W/m² | - |
| 1777828801 | 32.22° C | 60% | 1016.6 hPa | 0 mm | - | 67 W/m² | - |
| 1777828497 | 32.22° C | 59% | 1016.7 hPa | 0 mm | - | 68 W/m² | - |
| 1777828195 | 32.22° C | 61% | 1016.7 hPa | 0 mm | - | 71 W/m² | - |
| 1777827891 | 32.22° C | 62% | 1017 hPa | 0 mm | - | 71 W/m² | - |
| 1777827588 | 32.22° C | 62% | 1017.1 hPa | 0 mm | - | 84 W/m² | - |
| 1777827286 | 31.67° C | 64% | 1017.1 hPa | 0 mm | - | 771 W/m² | - |
| 1777826982 | 31.67° C | 65% | 1017.3 hPa | 0 mm | - | 905 W/m² | - |
| 1777826679 | 32.22° C | 66% | 1017.3 hPa | 0 mm | - | 842 W/m² | - |
| 1777826375 | 32.22° C | 65% | 1017.3 hPa | 0 mm | - | 836 W/m² | - |
| 1777826073 | 32.78° C | 65% | 1017.3 hPa | 0 mm | - | 742 W/m² | - |
| 1777825770 | 31.67° C | 64% | 1017.1 hPa | 0 mm | - | 841 W/m² | - |
| 1777825467 | 32.22° C | 65% | 1017.2 hPa | 0 mm | - | 852 W/m² | - |
| 1777825164 | 32.22° C | 65% | 1017.4 hPa | 0 mm | - | 857 W/m² | - |
| 1777824861 | 32.22° C | 64% | 1017.2 hPa | 0 mm | - | 848 W/m² | - |
| 1777824557 | 32.22° C | 64% | 1017.5 hPa | 0 mm | - | 843 W/m² | - |
| 1777824254 | 32.22° C | 62% | 1017.6 hPa | 0 mm | - | 858 W/m² | - |
| 1777823950 | 32.22° C | 63% | 1017.5 hPa | 0 mm | - | 851 W/m² | - |
| 1777823647 | 32.78° C | 62% | 1017.3 hPa | 0 mm | - | 842 W/m² | - |
| 1777823344 | 31.67° C | 64% | 1017.6 hPa | 0 mm | - | 821 W/m² | - |
| 1777823041 | 31.67° C | 65% | 1017.7 hPa | 0 mm | - | 224 W/m² | - |
| 1777822739 | 32.22° C | 64% | 1017.8 hPa | 0 mm | - | 838 W/m² | - |
| 1777822437 | 31.67° C | 63% | 1017.8 hPa | 0 mm | - | 906 W/m² | - |
| 1777822134 | 31.67° C | 62% | 1017.8 hPa | 0 mm | - | 822 W/m² | - |
| 1777821832 | 31.67° C | 61% | 1018 hPa | 0 mm | - | 818 W/m² | - |
* Rain latest hour (hover to see other rain measurements)
** Current wind speed in m/s (hover to see current wind gust speed)